Nogales, AZ

1:42 AM MST on May 26, 2017 (GMT -0700)
Nogales International

Weather History for KOLS - December, 2013

Change the Weather History Date:

Tuesday, December 31, 2013

  Actual Average (KFHU) Record (KFHU)
Temperature  
Mean Temperature 50 °F -  
Max Temperature 69 °F 58 °F 73 °F (1998)
Min Temperature 32 °F 36 °F 19 °F (1988)
Degree Days  
Heating Degree Days 14    
Moisture  
Dew Point 17 °F    
Average Humidity 35    
Maximum Humidity 61    
Minimum Humidity 10    
Precipitation  
Precipitation 0.00 in - - ()
Sea Level Pressure  
Sea Level Pressure 30.12 in    
Wind  
Wind Speed 3 mph (ENE)    
Max Wind Speed 7 mph    
Max Gust Speed -    
Visibility 10 miles    
Events      
Averages and records for this station are not official NWS values.
T = Trace of Precipitation, MM = Missing Value Source: NWS Daily Summary

Daily Weather History Graph

Daily Weather History Graph

Search for Another Location

Airport or City:

Trip Planner

Search our weather history database for the weather conditions in past years. The results will help you decide how hot, cold, wet, or windy it might be!

Date:

Astronomy

Dec. 31, 2013 Rise Set
Actual Time 7:22 AM MST 5:30 PM MST
Civil Twilight 6:55 AM MST 5:57 PM MST
Nautical Twilight 6:25 AM MST 6:27 PM MST
Astronomical Twilight 5:55 AM MST 6:57 PM MST
Moon 6:21 AM MST (12/31) 5:07 PM MST (12/31)
Length of Visible Light 11h 02m
Length of Day
10h 08m
Waning Crescent, 1% of the Moon is Illuminated
Dec 31
Waning Crescent
Jan 1
New
Jan 7
First Quarter
Jan 15
Full
Jan 23
Last Quarter

Hourly Weather History & Observations

Time (MST) Temp. Windchill Dew Point Humidity Pressure Visibility Wind Dir Wind Speed Gust Speed Precip Events Conditions
12:54 AM 37.0 °F 32.4 °F 21.9 °F 54% 30.17 in 10.0 mi ENE 5.8 mph - N/A   Clear
1:54 AM 36.0 °F - 21.0 °F 55% 30.17 in 10.0 mi Calm Calm - N/A   Clear
2:54 AM 35.1 °F 31.0 °F 21.0 °F 57% 30.16 in 10.0 mi South 4.6 mph - N/A   Clear
3:54 AM 34.0 °F - 19.9 °F 56% 30.16 in 10.0 mi Calm Calm - N/A   Clear
4:54 AM 33.1 °F 30.0 °F 19.9 °F 59% 30.15 in 10.0 mi East 3.5 mph - N/A   Clear
5:54 AM 33.1 °F 30.0 °F 19.9 °F 59% 30.17 in 10.0 mi ENE 3.5 mph - N/A   Clear
6:54 AM 32.0 °F - 19.9 °F 61% 30.19 in 10.0 mi Calm Calm - N/A   Clear
7:54 AM 34.0 °F - 19.9 °F 56% 30.19 in 10.0 mi Calm Calm - N/A   Clear
8:54 AM 46.9 °F - 21.0 °F 36% 30.19 in 10.0 mi NNE 4.6 mph - N/A   Clear
9:54 AM 55.0 °F - 19.0 °F 24% 30.19 in 10.0 mi Calm Calm - N/A   Clear
10:54 AM 59.0 °F - 16.0 °F 19% 30.17 in 10.0 mi Calm Calm - N/A   Clear
11:54 AM 64.0 °F - 16.0 °F 16% 30.12 in 10.0 mi Calm Calm - N/A   Clear
12:54 PM 66.0 °F - 17.1 °F 15% 30.08 in 10.0 mi Variable 5.8 mph - N/A   Clear
1:54 PM 68.0 °F - 12.0 °F 11% 30.05 in 10.0 mi Calm Calm - N/A   Clear
2:54 PM 69.1 °F - 12.0 °F 11% 30.04 in 10.0 mi WSW 6.9 mph - N/A   Clear
3:54 PM 68.0 °F - 10.0 °F 11% 30.04 in 10.0 mi WNW 5.8 mph - N/A   Clear
4:54 PM 66.9 °F - 9.0 °F 10% 30.04 in 10.0 mi Calm Calm - N/A   Clear
5:54 PM 55.9 °F - 15.1 °F 20% 30.06 in 10.0 mi ENE 5.8 mph - N/A   Clear
6:54 PM 50.0 °F - 16.0 °F 26% 30.09 in 10.0 mi Variable 3.5 mph - N/A   Clear
7:54 PM 48.9 °F - 17.1 °F 28% 30.09 in 10.0 mi North 3.5 mph - N/A   Clear
8:54 PM 44.1 °F - 18.0 °F 35% 30.09 in 10.0 mi Calm Calm - N/A   Clear
9:54 PM 42.1 °F 40.2 °F 18.0 °F 38% 30.08 in 10.0 mi SE 3.5 mph - N/A   Clear
10:54 PM 42.1 °F - 18.0 °F 38% 30.07 in 10.0 mi Calm Calm - N/A   Clear
11:54 PM 39.9 °F - 19.0 °F 43% 30.06 in 10.0 mi Calm Calm - N/A   Clear